Location: Bord�res
(43.2000°N, 0.2167°W)
Time: 20:42:46
(UTC+00:00)

Cosmos 1777 Rocket - Pass Details

Date: 03 March 2021
Orbit: 759 x 775 km, 74.0° (Epoch: 18 April)

Event Time Altitude Azimuth Distance (km) Brightness Sun altitude
Rises 20:10:00 0° 337° (NNW) 3,245 7.8 -25.6°
Reaches altitude 10° 20:12:24 10° 335° (NNW) 2,312 7.0 -26.0°
Maximum altitude 20:17:37 70° 253° (WSW) 812 4.1 -26.9°
Enters shadow 20:18:19 61° 204° (SSW) 863 4.2 -27.1°
